contact:dominique.lefevre@mio.osupytheas.fr, maurice.libes@osupytheas.fr, didier.mallarino@osupytheas.fr
Project:EMSO http://www.emso-fr.org/EMSO-France
Depth: 2436.0 m
Title:EMSO Ligure Ouest : Data MII capteur AQUADOPP
Date,Latitude,Longitude,X_East,Y_North,Z_Up,Amplitude_X,Amplitude_Y,Amplitude_Z,Batterie,SoundSpeed,Heading,Pitch,Roll,Pressure,TIS,Speed,Direction
, degrees North, degrees East, m.s-1, m.s-1,m.s-1, 1, 1, 1, Volt, m.s-1, degree, degree, degree, dbar, degree_C, m.s-1, degree
2023-01-25T00:04:03,42.805,6.029,-0.006,-0.016,-0.024,101.0,102.0,102.0,13.4,1505.2,328.3,-0.8,1.8,2471.152,13.29,0.017,200.6
2023-01-25T00:07:03,42.805,6.029,-0.017,-0.015,-0.017,103.0,100.0,101.0,13.4,1505.2,333.0,-0.8,1.8,2471.185,13.29,0.022,228.6
2023-01-25T00:10:03,42.805,6.029,-0.007,-0.002,0.027,102.0,102.0,101.0,13.3,1505.2,333.0,-0.8,1.8,2471.14,13.29,0.007,254.1
2023-01-25T00:13:03,42.805,6.029,-0.006,-0.02,0.016,101.0,101.0,101.0,13.3,1505.2,323.7,-0.8,1.8,2471.153,13.29,0.02,196.7
2023-01-25T00:16:03,42.805,6.029,-0.003,-0.021,-0.013,102.0,101.0,101.0,13.3,1505.2,317.0,-0.8,1.8,2471.099,13.29,0.021,188.1
2023-01-25T00:19:03,42.805,6.029,0.0,-0.012,-0.002,101.0,102.0,101.0,13.3,1505.2,317.1,-0.7,1.8,2471.142,13.29,0.012,180.0
2023-01-25T00:22:03,42.805,6.029,-0.001,-0.017,-0.009,101.0,105.0,100.0,13.4,1505.2,327.0,-0.8,1.8,2471.112,13.29,0.017,183.4
2023-01-25T00:25:03,42.805,6.029,-0.013,-0.009,-0.018,101.0,102.0,101.0,13.4,1505.2,321.0,-0.8,1.8,2471.124,13.29,0.015,235.3
2023-01-25T00:28:03,42.805,6.029,-0.009,-0.011,0.019,101.0,100.0,102.0,13.4,1505.2,320.6,-0.7,1.8,2471.142,13.29,0.014,219.3
2023-01-25T00:31:03,42.805,6.029,-0.024,-0.03,-0.019,101.0,102.0,101.0,13.4,1505.2,321.7,-0.8,1.8,2471.137,13.29,0.038,218.7
2023-01-25T00:34:03,42.805,6.029,-0.041,-0.017,0.004,104.0,100.0,102.0,13.4,1505.2,326.7,-0.7,1.8,2471.096,13.29,0.044,247.5
2023-01-25T00:37:03,42.805,6.029,-0.007,-0.02,0.015,102.0,101.0,101.0,13.4,1505.2,329.1,-0.8,1.8,2471.057,13.29,0.021,199.3
2023-01-25T00:40:03,42.805,6.029,-0.002,-0.016,0.001,101.0,103.0,101.0,13.4,1505.2,329.4,-0.8,1.8,2471.121,13.29,0.016,187.1
2023-01-25T00:43:03,42.805,6.029,-0.031,-0.014,-0.006,102.0,101.0,101.0,13.4,1505.2,329.3,-0.8,1.8,2471.094,13.29,0.034,245.7
2023-01-25T00:46:03,42.805,6.029,-0.018,-0.016,0.003,102.0,101.0,101.0,13.4,1505.2,329.6,-0.7,1.8,2471.101,13.29,0.024,228.4
2023-01-25T00:49:03,42.805,6.029,0.013,-0.015,0.006,102.0,102.0,101.0,13.4,1505.2,324.2,-0.8,1.8,2471.077,13.29,0.019,139.1
2023-01-25T00:52:03,42.805,6.029,-0.002,-0.022,-0.017,102.0,105.0,101.0,13.3,1505.2,330.0,-0.8,1.8,2471.053,13.29,0.022,185.2
2023-01-25T00:55:03,42.805,6.029,-0.008,-0.019,-0.015,103.0,102.0,101.0,13.4,1505.2,317.1,-0.7,1.8,2471.063,13.29,0.02,202.8
2023-01-25T00:58:03,42.805,6.029,0.013,-0.025,-0.01,103.0,103.0,101.0,13.3,1505.2,320.5,-0.7,1.8,2471.115,13.29,0.028,152.5
2023-01-25T01:04:03,42.805,6.029,0.013,-0.017,0.013,104.0,103.0,103.0,13.3,1505.2,329.3,-0.7,1.8,2471.109,13.29,0.021,142.6
2023-01-25T01:07:03,42.805,6.029,-0.013,0.006,0.027,104.0,103.0,104.0,13.4,1505.2,315.0,-0.8,1.8,2471.115,13.29,0.014,294.8
2023-01-25T01:10:03,42.805,6.029,-0.014,-0.011,-0.035,101.0,103.0,101.0,13.4,1505.2,330.4,-0.8,1.8,2471.135,13.29,0.017,231.8
2023-01-25T01:13:03,42.805,6.029,-0.026,-0.019,-0.024,102.0,104.0,102.0,13.4,1505.2,315.5,-0.8,1.9,2471.138,13.29,0.032,233.8
2023-01-25T01:16:03,42.805,6.029,-0.024,-0.027,-0.015,104.0,102.0,102.0,13.4,1505.2,321.4,-0.7,1.8,2471.09,13.29,0.036,221.6
2023-01-25T01:19:03,42.805,6.029,-0.019,-0.009,-0.001,102.0,102.0,102.0,13.3,1505.2,338.5,-0.7,1.9,2471.084,13.29,0.021,244.7
2023-01-25T01:22:03,42.805,6.029,-0.012,0.0,-0.011,103.0,101.0,102.0,13.4,1505.2,329.9,-0.8,1.8,2471.106,13.29,0.012,270.0
2023-01-25T01:25:03,42.805,6.029,-0.011,-0.025,-0.014,103.0,102.0,102.0,13.4,1505.2,319.6,-0.8,1.8,2471.067,13.29,0.027,203.7
2023-01-25T01:28:03,42.805,6.029,0.013,-0.019,-0.008,102.0,102.0,102.0,13.3,1505.2,316.1,-0.8,1.8,2471.069,13.29,0.023,145.6
2023-01-25T01:31:03,42.805,6.029,-0.028,-0.006,-0.017,103.0,102.0,102.0,13.4,1505.2,322.1,-0.8,1.8,2471.065,13.29,0.028,257.9
2023-01-25T01:34:03,42.805,6.029,-0.002,-0.002,-0.018,104.0,102.0,102.0,13.3,1505.2,328.2,-0.8,1.8,2471.083,13.29,0.002,225.0
2023-01-25T01:37:03,42.805,6.029,-0.031,-0.017,-0.048,102.0,102.0,102.0,13.3,1505.2,321.0,-0.8,1.8,2471.056,13.29,0.035,241.3
2023-01-25T01:40:03,42.805,6.029,-0.013,-0.002,-0.014,103.0,103.0,101.0,13.3,1505.2,322.7,-0.8,1.8,2471.051,13.29,0.013,261.3
2023-01-25T01:43:03,42.805,6.029,-0.021,-0.025,-0.028,103.0,102.0,102.0,13.4,1505.2,331.3,-0.8,1.8,2471.062,13.29,0.032,220.0
2023-01-25T01:46:03,42.805,6.029,-0.002,-0.015,-0.006,103.0,101.0,102.0,13.4,1505.2,333.4,-0.8,1.8,2471.09,13.29,0.015,187.6
2023-01-25T01:49:03,42.805,6.029,-0.018,0.006,0.013,103.0,102.0,103.0,13.3,1505.2,335.4,-0.7,1.8,2471.015,13.29,0.018,288.4
2023-01-25T01:52:03,42.805,6.029,0.0,-0.014,-0.004,104.0,102.0,102.0,13.3,1505.2,336.3,-0.8,1.8,2471.083,13.29,0.014,180.0
2023-01-25T01:55:03,42.805,6.029,-0.03,-0.01,-0.022,103.0,103.0,102.0,13.4,1505.2,332.6,-0.7,1.8,2471.074,13.29,0.031,251.6
2023-01-25T01:58:03,42.805,6.029,-0.009,-0.002,-0.029,103.0,102.0,103.0,13.4,1505.2,318.6,-0.8,1.8,2471.051,13.29,0.009,257.5
2023-01-25T02:04:03,42.805,6.029,-0.013,-0.007,0.019,104.0,103.0,102.0,13.3,1505.2,328.0,-0.8,1.8,2471.12,13.29,0.014,241.7
2023-01-25T02:07:03,42.805,6.029,0.002,-0.04,0.01,103.0,103.0,102.0,13.3,1505.2,326.0,-0.8,1.8,2471.15,13.29,0.04,177.1
2023-01-25T02:10:03,42.805,6.029,-0.001,-0.002,0.011,102.0,102.0,102.0,13.3,1505.2,323.4,-0.8,1.8,2471.102,13.29,0.002,206.6
2023-01-25T02:13:03,42.805,6.029,-0.019,-0.014,-0.01,103.0,102.0,101.0,13.3,1505.2,322.4,-0.8,1.8,2471.073,13.29,0.023,233.6
2023-01-25T02:16:03,42.805,6.029,0.0,-0.024,-0.01,104.0,101.0,102.0,13.3,1505.2,334.6,-0.7,1.8,2471.046,13.29,0.024,180.0
2023-01-25T02:19:03,42.805,6.029,-0.015,-0.017,-0.006,104.0,102.0,101.0,13.4,1505.2,328.8,-0.8,1.8,2471.014,13.29,0.022,221.4
2023-01-25T02:22:03,42.805,6.029,-0.014,-0.019,-0.015,103.0,102.0,102.0,13.3,1505.2,334.9,-0.7,1.8,2471.069,13.29,0.023,216.4
2023-01-25T02:25:03,42.805,6.029,-0.015,-0.02,-0.025,103.0,102.0,102.0,13.4,1505.2,333.4,-0.8,1.8,2471.047,13.29,0.025,216.9
2023-01-25T02:28:03,42.805,6.029,0.001,-0.001,-0.018,103.0,101.0,103.0,13.4,1505.2,326.3,-0.7,1.8,2471.037,13.29,0.001,135.0
2023-01-25T02:31:03,42.805,6.029,-0.005,-0.008,0.022,105.0,100.0,103.0,13.3,1505.2,329.1,-0.8,1.8,2471.028,13.29,0.009,212.0
2023-01-25T02:34:03,42.805,6.029,0.01,-0.032,-0.001,102.0,102.0,101.0,13.3,1505.2,325.6,-0.7,1.8,2471.049,13.29,0.033,162.6
2023-01-25T02:37:03,42.805,6.029,-0.003,0.001,0.0,103.0,103.0,102.0,13.4,1505.2,332.6,-0.8,1.8,2471.026,13.29,0.003,288.4
2023-01-25T02:40:03,42.805,6.029,-0.026,-0.011,-0.001,103.0,101.0,102.0,13.3,1505.2,331.8,-0.8,1.8,2471.033,13.29,0.028,247.1
2023-01-25T02:43:03,42.805,6.029,-0.005,-0.003,0.036,102.0,102.0,102.0,13.3,1505.2,324.5,-0.7,1.8,2470.998,13.29,0.005,239.0
2023-01-25T02:46:03,42.805,6.029,-0.012,-0.014,-0.005,103.0,103.0,101.0,13.4,1505.2,323.1,-0.8,1.8,2471.009,13.29,0.018,220.6
2023-01-25T02:49:03,42.805,6.029,-0.002,0.0,0.004,102.0,103.0,102.0,13.3,1505.2,325.4,-0.8,1.8,2471.033,13.29,0.002,270.0
2023-01-25T02:52:03,42.805,6.029,-0.014,-0.015,-0.017,103.0,103.0,102.0,13.4,1505.2,331.3,-0.8,1.8,2470.977,13.29,0.02,223.0
2023-01-25T02:55:03,42.805,6.029,-0.032,-0.014,-0.058,102.0,102.0,101.0,13.3,1505.2,335.2,-0.7,1.8,2471.017,13.29,0.034,246.4
2023-01-25T02:58:03,42.805,6.029,0.007,-0.019,-0.019,103.0,105.0,102.0,13.3,1505.2,327.0,-0.8,1.8,2471.004,13.29,0.02,159.8
2023-01-25T04:04:03,42.805,6.029,0.0,-0.022,-0.009,103.0,102.0,102.0,13.4,1505.1,330.2,-0.8,1.9,2471.506,13.27,0.022,180.0
2023-01-25T04:07:03,42.805,6.029,-0.002,-0.014,0.035,101.0,103.0,103.0,13.4,1505.2,324.3,-0.8,1.8,2471.397,13.28,0.014,188.1
2023-01-25T04:10:03,42.805,6.029,-0.013,-0.022,-0.008,102.0,103.0,106.0,13.3,1505.2,339.3,-0.7,1.8,2471.262,13.28,0.025,210.6
2023-01-25T04:13:03,42.805,6.029,0.009,-0.032,-0.011,104.0,102.0,102.0,13.4,1505.2,332.0,-0.7,1.8,2471.156,13.28,0.033,164.3
2023-01-25T04:16:03,42.805,6.029,0.0,-0.034,-0.032,105.0,102.0,102.0,13.4,1505.2,317.7,-0.7,1.8,2471.103,13.28,0.034,180.0
2023-01-25T04:19:03,42.805,6.029,-0.004,-0.025,-0.018,104.0,104.0,102.0,13.4,1505.2,329.6,-0.8,1.8,2471.074,13.29,0.025,189.1
2023-01-25T04:22:03,42.805,6.029,-0.001,-0.026,0.004,104.0,105.0,103.0,13.4,1505.2,333.8,-0.8,1.8,2471.051,13.29,0.026,182.2
2023-01-25T04:25:03,42.805,6.029,0.002,-0.028,-0.023,105.0,104.0,104.0,13.4,1505.2,330.1,-0.8,1.8,2471.048,13.29,0.028,175.9
2023-01-25T04:28:03,42.805,6.029,0.015,-0.008,0.006,106.0,105.0,103.0,13.3,1505.2,323.7,-0.8,1.8,2470.992,13.29,0.017,118.1
2023-01-25T04:31:03,42.805,6.029,0.006,-0.048,-0.042,105.0,105.0,103.0,13.4,1505.2,334.2,-0.8,1.8,2470.995,13.29,0.048,172.9
2023-01-25T04:34:03,42.805,6.029,-0.008,-0.012,0.017,105.0,106.0,103.0,13.3,1505.2,327.0,-0.8,1.8,2471.004,13.29,0.014,213.7
2023-01-25T04:37:03,42.805,6.029,-0.009,-0.007,-0.022,105.0,104.0,103.0,13.4,1505.2,321.0,-0.8,1.8,2470.969,13.29,0.011,232.1
2023-01-25T04:40:03,42.805,6.029,0.028,-0.028,-0.004,106.0,105.0,103.0,13.3,1505.2,326.0,-0.7,1.8,2471.006,13.29,0.039,135.0
2023-01-25T04:43:03,42.805,6.029,0.005,-0.016,-0.026,105.0,106.0,104.0,13.4,1505.2,330.8,-0.8,1.8,2471.0,13.29,0.016,162.6
2023-01-25T04:46:03,42.805,6.029,0.009,-0.028,-0.033,106.0,105.0,104.0,13.4,1505.2,333.0,-0.8,1.8,2471.001,13.29,0.029,162.2
2023-01-25T04:49:03,42.805,6.029,0.014,-0.039,-0.015,104.0,105.0,103.0,13.4,1505.2,319.8,-0.8,1.8,2471.001,13.29,0.041,160.3
2023-01-25T04:52:03,42.805,6.029,-0.025,-0.025,-0.002,105.0,104.0,104.0,13.4,1505.2,325.4,-0.7,1.8,2471.021,13.29,0.035,225.0
2023-01-25T04:55:03,42.805,6.029,0.018,-0.022,0.011,105.0,105.0,104.0,13.3,1505.2,326.1,-0.8,1.8,2470.99,13.29,0.028,140.7
2023-01-25T04:58:03,42.805,6.029,-0.003,-0.021,-0.039,106.0,105.0,104.0,13.4,1505.2,327.5,-0.7,1.8,2470.972,13.29,0.021,188.1
2023-01-25T06:04:03,42.805,6.029,0.008,-0.012,0.006,106.0,105.0,104.0,13.4,1505.1,322.8,-0.8,1.8,2471.593,13.27,0.014,146.3
2023-01-25T06:07:03,42.805,6.029,-0.005,-0.014,-0.002,104.0,105.0,104.0,13.4,1505.2,337.1,-0.8,1.8,2471.437,13.28,0.014,199.6
2023-01-25T06:10:03,42.805,6.029,-0.011,-0.018,-0.007,106.0,105.0,104.0,13.4,1505.2,337.4,-0.8,1.8,2471.336,13.28,0.021,211.4
2023-01-25T06:13:03,42.805,6.029,0.017,-0.019,0.006,106.0,105.0,103.0,13.4,1505.2,329.4,-0.8,1.8,2471.268,13.28,0.025,138.2
2023-01-25T06:16:03,42.805,6.029,0.0,-0.036,0.013,106.0,105.0,104.0,13.4,1505.2,319.4,-0.7,1.8,2471.191,13.28,0.036,180.0
2023-01-25T06:19:03,42.805,6.029,-0.005,-0.03,-0.004,105.0,106.0,104.0,13.4,1505.2,329.1,-0.7,1.8,2471.099,13.29,0.03,189.5
2023-01-25T06:22:03,42.805,6.029,0.003,-0.024,-0.001,106.0,105.0,104.0,13.4,1505.2,325.6,-0.8,1.8,2471.146,13.29,0.024,172.9
2023-01-25T06:25:03,42.805,6.029,0.008,-0.04,-0.009,106.0,105.0,103.0,13.4,1505.2,324.3,-0.8,1.8,2471.083,13.29,0.04,168.7
2023-01-25T06:28:03,42.805,6.029,-0.016,-0.039,-0.024,106.0,105.0,103.0,13.4,1505.2,327.8,-0.8,1.8,2471.084,13.29,0.042,202.3
2023-01-25T06:31:03,42.805,6.029,-0.014,-0.023,-0.01,107.0,106.0,104.0,13.3,1505.2,330.1,-0.8,1.9,2471.098,13.29,0.026,211.3
2023-01-25T06:34:03,42.805,6.029,-0.027,-0.023,0.001,106.0,105.0,104.0,13.3,1505.2,322.8,-0.8,1.8,2471.068,13.29,0.035,229.6
2023-01-25T06:37:03,42.805,6.029,0.003,-0.014,0.012,105.0,104.0,104.0,13.3,1505.2,323.4,-0.8,1.8,2471.079,13.29,0.014,167.9
2023-01-25T06:40:03,42.805,6.029,0.001,-0.023,-0.01,106.0,105.0,104.0,13.3,1505.2,320.7,-0.7,1.8,2471.119,13.29,0.023,177.5
2023-01-25T06:43:03,42.805,6.029,0.001,-0.02,0.01,106.0,105.0,105.0,13.3,1505.2,327.8,-0.8,1.8,2471.106,13.29,0.02,177.1
2023-01-25T06:46:03,42.805,6.029,-0.014,-0.012,0.016,106.0,104.0,104.0,13.4,1505.2,329.6,-0.8,1.8,2471.166,13.29,0.018,229.4
2023-01-25T06:49:03,42.805,6.029,-0.004,-0.022,-0.004,105.0,105.0,104.0,13.4,1505.2,328.0,-0.8,1.8,2471.107,13.29,0.022,190.3
2023-01-25T06:52:03,42.805,6.029,0.004,-0.023,-0.011,106.0,105.0,105.0,13.4,1505.2,325.8,-0.7,1.8,2471.109,13.29,0.023,170.1
2023-01-25T06:55:03,42.805,6.029,0.01,-0.022,-0.023,106.0,105.0,104.0,13.3,1505.2,332.6,-0.8,1.9,2471.153,13.29,0.024,155.6
2023-01-25T06:58:03,42.805,6.029,-0.002,-0.038,0.012,106.0,106.0,105.0,13.4,1505.2,326.0,-0.7,1.8,2471.146,13.29,0.038,183.0
2023-01-25T07:04:03,42.805,6.029,0.009,-0.034,0.023,106.0,104.0,104.0,13.4,1505.2,328.2,-0.8,1.8,2471.176,13.28,0.035,165.2
2023-01-25T07:07:03,42.805,6.029,-0.005,-0.043,0.011,106.0,106.0,104.0,13.4,1505.2,335.1,-0.8,1.8,2471.186,13.28,0.043,186.6
2023-01-25T07:10:03,42.805,6.029,0.001,-0.042,-0.004,106.0,105.0,104.0,13.4,1505.2,337.5,-0.7,1.8,2471.175,13.29,0.042,178.6
2023-01-25T07:13:03,42.805,6.029,-0.003,-0.014,0.016,106.0,105.0,104.0,13.4,1505.2,337.0,-0.8,1.8,2471.14,13.29,0.014,192.1
2023-01-25T07:16:03,42.805,6.029,-0.016,-0.018,-0.001,107.0,106.0,104.0,13.4,1505.2,338.0,-0.8,1.8,2471.145,13.29,0.024,221.6
2023-01-25T07:19:03,42.805,6.029,0.005,-0.021,0.019,106.0,106.0,104.0,13.3,1505.2,322.4,-0.7,1.8,2471.186,13.29,0.021,166.6
2023-01-25T07:22:03,42.805,6.029,-0.005,-0.025,-0.019,105.0,105.0,105.0,13.4,1505.2,328.1,-0.7,1.8,2471.183,13.29,0.025,191.3
2023-01-25T07:25:03,42.805,6.029,0.009,-0.041,0.009,106.0,106.0,103.0,13.4,1505.2,323.2,-0.8,1.8,2471.15,13.29,0.041,167.6
2023-01-25T07:28:03,42.805,6.029,0.0,-0.026,0.0,106.0,106.0,104.0,13.4,1505.2,322.5,-0.8,1.8,2471.185,13.29,0.026,180.0
2023-01-25T07:31:03,42.805,6.029,0.001,-0.022,0.003,106.0,105.0,105.0,13.4,1505.2,322.7,-0.7,1.8,2471.219,13.29,0.022,177.4
2023-01-25T07:34:03,42.805,6.029,0.01,-0.034,0.038,107.0,104.0,105.0,13.3,1505.2,321.7,-0.8,1.8,2471.216,13.29,0.035,163.6
2023-01-25T07:37:03,42.805,6.029,0.0,-0.032,-0.002,107.0,106.0,104.0,13.4,1505.2,332.3,-0.8,1.8,2471.211,13.29,0.032,180.0
2023-01-25T07:40:03,42.805,6.029,-0.006,-0.021,-0.009,107.0,106.0,104.0,13.3,1505.2,324.8,-0.8,1.8,2471.151,13.29,0.021,195.9
2023-01-25T07:43:03,42.805,6.029,0.002,-0.021,0.034,107.0,105.0,104.0,13.4,1505.2,325.8,-0.8,1.8,2471.189,13.29,0.021,174.6
2023-01-25T07:46:03,42.805,6.029,0.001,-0.02,0.011,105.0,105.0,105.0,13.4,1505.2,326.7,-0.7,1.8,2471.203,13.29,0.02,177.1
2023-01-25T07:49:03,42.805,6.029,0.011,-0.031,-0.036,105.0,105.0,104.0,13.3,1505.2,326.7,-0.8,1.8,2471.214,13.29,0.032,160.5
2023-01-25T07:52:03,42.805,6.029,0.004,-0.032,-0.014,105.0,106.0,103.0,13.4,1505.2,321.7,-0.7,1.8,2471.218,13.29,0.032,172.9
2023-01-25T07:55:03,42.805,6.029,0.001,-0.023,-0.01,106.0,105.0,104.0,13.3,1505.2,316.5,-0.8,1.8,2471.199,13.29,0.023,177.5
2023-01-25T07:58:03,42.805,6.029,0.002,-0.05,-0.007,106.0,105.0,104.0,13.4,1505.2,325.3,-0.8,1.8,2471.21,13.29,0.05,177.7
2023-01-25T08:04:03,42.805,6.029,0.023,-0.053,-0.036,105.0,105.0,104.0,13.4,1505.2,324.7,-0.8,1.8,2471.245,13.28,0.057,156.5
2023-01-25T08:07:03,42.805,6.029,0.018,-0.015,-0.013,106.0,103.0,104.0,13.4,1505.2,324.3,-0.8,1.8,2471.246,13.28,0.023,129.8
2023-01-25T08:10:03,42.805,6.029,-0.002,-0.024,-0.012,106.0,105.0,105.0,13.4,1505.2,338.0,-0.8,1.8,2471.236,13.29,0.024,184.8
2023-01-25T08:13:03,42.805,6.029,-0.001,-0.017,0.013,107.0,107.0,104.0,13.4,1505.2,334.5,-0.7,1.8,2471.254,13.29,0.017,183.4
2023-01-25T08:16:03,42.805,6.029,0.016,-0.028,-0.004,107.0,105.0,104.0,13.4,1505.2,320.0,-0.8,1.8,2471.291,13.29,0.032,150.3
2023-01-25T08:19:03,42.805,6.029,0.002,-0.029,-0.029,105.0,104.0,104.0,13.4,1505.2,329.3,-0.8,1.8,2471.239,13.29,0.029,176.1
2023-01-25T08:22:03,42.805,6.029,-0.015,-0.034,-0.006,105.0,105.0,103.0,13.4,1505.2,322.8,-0.8,1.8,2471.263,13.29,0.037,203.8
2023-01-25T08:25:03,42.805,6.029,-0.014,-0.045,-0.005,105.0,104.0,103.0,13.3,1505.2,323.4,-0.7,1.8,2471.252,13.29,0.047,197.3
2023-01-25T08:28:03,42.805,6.029,0.0,-0.033,0.011,107.0,104.0,104.0,13.3,1505.2,324.3,-0.8,1.8,2471.272,13.29,0.033,180.0
2023-01-25T08:31:03,42.805,6.029,-0.007,-0.04,0.003,105.0,105.0,104.0,13.3,1505.2,329.8,-0.8,1.8,2471.24,13.29,0.04,189.9
2023-01-25T08:34:03,42.805,6.029,0.011,-0.064,-0.042,105.0,104.0,104.0,13.4,1505.2,328.7,-0.8,1.8,2471.245,13.29,0.064,170.2
2023-01-25T08:37:03,42.805,6.029,0.025,-0.035,-0.015,105.0,105.0,104.0,13.4,1505.2,316.6,-0.7,1.8,2471.266,13.29,0.043,144.5
2023-01-25T08:40:03,42.805,6.029,0.009,-0.015,-0.013,105.0,105.0,104.0,13.3,1505.2,326.0,-0.7,1.8,2471.258,13.29,0.017,149.0
2023-01-25T08:43:03,42.805,6.029,0.001,-0.044,-0.005,106.0,104.0,103.0,13.4,1505.2,330.8,-0.8,1.8,2471.255,13.29,0.044,178.7
2023-01-25T08:46:03,42.805,6.029,0.022,-0.03,-0.006,106.0,105.0,103.0,13.3,1505.2,330.9,-0.7,1.8,2471.306,13.29,0.037,143.7
2023-01-25T08:49:03,42.805,6.029,0.006,-0.02,-0.017,105.0,104.0,103.0,13.4,1505.2,331.3,-0.8,1.8,2471.248,13.29,0.02,163.3
2023-01-25T08:52:03,42.805,6.029,0.024,-0.043,-0.001,105.0,106.0,104.0,13.3,1505.2,330.9,-0.8,1.8,2471.245,13.29,0.049,150.8
2023-01-25T08:55:03,42.805,6.029,-0.007,-0.025,-0.035,105.0,105.0,103.0,13.4,1505.2,327.0,-0.8,1.8,2471.273,13.29,0.025,195.6
2023-01-25T08:58:03,42.805,6.029,0.01,-0.022,0.004,105.0,105.0,103.0,13.4,1505.2,326.7,-0.8,1.8,2471.281,13.29,0.024,155.6
2023-01-25T09:04:03,42.805,6.029,-0.002,-0.039,-0.036,105.0,105.0,104.0,13.3,1505.2,336.3,-0.8,1.8,2471.344,13.28,0.039,182.9
2023-01-25T09:07:03,42.805,6.029,0.014,-0.031,0.005,105.0,104.0,104.0,13.4,1505.2,322.3,-0.8,1.8,2471.338,13.28,0.034,155.7
2023-01-25T09:10:03,42.805,6.029,-0.004,-0.025,0.001,105.0,104.0,103.0,13.4,1505.2,328.6,-0.8,1.9,2471.36,13.28,0.025,189.1
2023-01-25T09:13:03,42.805,6.029,-0.015,-0.044,-0.039,105.0,105.0,103.0,13.4,1505.2,318.6,-0.7,1.8,2471.304,13.29,0.046,198.8
2023-01-25T09:16:03,42.805,6.029,0.009,-0.026,-0.01,106.0,106.0,104.0,13.4,1505.2,324.8,-0.8,1.8,2471.348,13.29,0.027,160.9
2023-01-25T09:19:03,42.805,6.029,-0.012,-0.031,-0.018,106.0,104.0,103.0,13.3,1505.2,332.2,-0.8,1.8,2471.301,13.29,0.033,201.2
2023-01-25T09:22:03,42.805,6.029,0.015,-0.039,0.029,105.0,105.0,103.0,13.4,1505.2,321.8,-0.8,1.8,2471.31,13.29,0.041,159.0
2023-01-25T09:25:03,42.805,6.029,0.013,-0.046,-0.016,105.0,105.0,104.0,13.3,1505.2,327.8,-0.7,1.8,2471.289,13.29,0.047,164.2
2023-01-25T09:28:03,42.805,6.029,-0.003,-0.016,-0.006,105.0,105.0,104.0,13.4,1505.2,325.0,-0.8,1.8,2471.317,13.29,0.016,190.6
2023-01-25T09:31:03,42.805,6.029,-0.003,-0.037,-0.027,106.0,104.0,104.0,13.3,1505.2,317.2,-0.8,1.8,2471.282,13.29,0.037,184.6
2023-01-25T09:34:03,42.805,6.029,-0.002,-0.029,-0.026,106.0,104.0,104.0,13.3,1505.2,328.0,-0.8,1.8,2471.278,13.29,0.029,183.9
2023-01-25T09:37:03,42.805,6.029,-0.015,-0.037,0.0,105.0,105.0,103.0,13.4,1505.2,330.9,-0.8,1.8,2471.277,13.29,0.039,202.1
2023-01-25T09:40:03,42.805,6.029,0.009,-0.024,0.006,106.0,104.0,103.0,13.4,1505.2,327.9,-0.8,1.8,2471.297,13.29,0.025,159.4
2023-01-25T09:43:03,42.805,6.029,0.012,-0.022,-0.005,105.0,107.0,104.0,13.3,1505.2,328.9,-0.8,1.8,2471.324,13.29,0.025,151.4
2023-01-25T09:46:03,42.805,6.029,0.002,-0.016,-0.026,106.0,105.0,105.0,13.4,1505.2,328.5,-0.8,1.8,2471.313,13.29,0.016,172.9
2023-01-25T09:49:03,42.805,6.029,0.024,-0.03,-0.014,107.0,105.0,104.0,13.3,1505.2,316.0,-0.8,1.8,2471.289,13.29,0.038,141.3
2023-01-25T09:52:03,42.805,6.029,0.0,-0.024,-0.003,106.0,104.0,104.0,13.4,1505.2,324.8,-0.8,1.8,2471.306,13.29,0.024,180.0
2023-01-25T09:55:03,42.805,6.029,-0.001,-0.018,0.018,105.0,106.0,104.0,13.4,1505.2,315.5,-0.8,1.8,2471.323,13.29,0.018,183.2
2023-01-25T09:58:03,42.805,6.029,0.001,-0.039,-0.005,107.0,105.0,104.0,13.3,1505.2,315.5,-0.8,1.8,2471.296,13.29,0.039,178.5
2023-01-25T10:04:03,42.805,6.029,-0.031,-0.028,-0.033,105.0,104.0,104.0,13.3,1505.2,333.8,-0.8,1.8,2471.337,13.28,0.041,227.9
2023-01-25T10:07:03,42.805,6.029,-0.001,-0.022,-0.028,105.0,105.0,104.0,13.4,1505.2,323.8,-0.8,1.8,2471.36,13.28,0.022,182.6
2023-01-25T10:10:03,42.805,6.029,-0.023,-0.036,-0.019,107.0,105.0,103.0,13.3,1505.2,323.9,-0.8,1.8,2471.345,13.29,0.042,212.6
2023-01-25T10:13:03,42.805,6.029,0.006,-0.02,0.001,105.0,107.0,103.0,13.3,1505.2,330.5,-0.7,1.8,2471.356,13.29,0.02,163.3
2023-01-25T10:16:03,42.805,6.029,-0.007,-0.033,0.003,107.0,105.0,103.0,13.4,1505.2,323.1,-0.8,1.8,2471.293,13.29,0.033,192.0
2023-01-25T10:19:03,42.805,6.029,0.005,-0.051,-0.025,106.0,104.0,103.0,13.4,1505.2,323.9,-0.7,1.8,2471.276,13.29,0.051,174.4
2023-01-25T10:22:03,42.805,6.029,-0.008,-0.025,0.005,106.0,104.0,104.0,13.4,1505.2,326.8,-0.7,1.8,2471.285,13.29,0.026,197.7
2023-01-25T10:25:03,42.805,6.029,0.001,-0.027,0.009,106.0,106.0,104.0,13.4,1505.2,338.0,-0.8,1.8,2471.305,13.29,0.027,177.9
2023-01-25T10:28:03,42.805,6.029,-0.021,-0.009,-0.016,106.0,106.0,105.0,13.4,1505.2,325.5,-0.8,1.8,2471.273,13.29,0.022,246.8
2023-01-25T10:31:03,42.805,6.029,0.003,0.0,-0.005,106.0,105.0,105.0,13.3,1505.2,317.6,-0.8,1.8,2471.269,13.29,0.003,90.0
2023-01-25T10:34:03,42.805,6.029,0.0,-0.04,-0.016,107.0,105.0,104.0,13.3,1505.2,323.4,-0.8,1.8,2471.33,13.29,0.04,180.0
2023-01-25T10:37:03,42.805,6.029,-0.014,-0.014,-0.006,106.0,105.0,103.0,13.4,1505.2,330.7,-0.7,1.8,2471.266,13.29,0.019,225.0
2023-01-25T10:40:03,42.805,6.029,-0.018,-0.032,0.009,107.0,105.0,103.0,13.4,1505.2,323.9,-0.8,1.8,2471.315,13.29,0.036,209.4
2023-01-25T10:43:03,42.805,6.029,0.002,-0.015,-0.014,105.0,104.0,104.0,13.3,1505.2,322.8,-0.8,1.8,2471.246,13.29,0.015,172.4
2023-01-25T10:46:03,42.805,6.029,-0.04,-0.025,-0.023,106.0,105.0,103.0,13.4,1505.2,329.1,-0.7,1.8,2471.272,13.29,0.047,238.0
2023-01-25T10:49:03,42.805,6.029,0.002,-0.013,-0.009,106.0,105.0,103.0,13.4,1505.2,334.6,-0.8,1.8,2471.279,13.29,0.013,171.3
2023-01-25T10:52:03,42.805,6.029,-0.001,-0.021,-0.013,106.0,105.0,104.0,13.4,1505.2,336.8,-0.8,1.8,2471.241,13.29,0.021,182.7
2023-01-25T10:55:03,42.805,6.029,0.021,-0.022,-0.019,106.0,105.0,103.0,13.4,1505.2,328.3,-0.7,1.8,2471.297,13.29,0.03,136.3
2023-01-25T10:58:03,42.805,6.029,-0.014,-0.042,0.021,106.0,106.0,103.0,13.3,1505.2,323.7,-0.8,1.8,2471.283,13.29,0.044,198.4
2023-01-25T11:04:03,42.805,6.029,-0.004,-0.021,0.014,106.0,105.0,104.0,13.4,1505.2,326.8,-0.7,1.8,2471.323,13.28,0.021,190.8
2023-01-25T11:07:03,42.805,6.029,0.01,-0.03,0.009,105.0,105.0,105.0,13.4,1505.2,323.6,-0.8,1.8,2471.324,13.28,0.031,161.6
2023-01-25T11:10:03,42.805,6.029,-0.009,-0.027,-0.022,106.0,105.0,104.0,13.3,1505.2,322.2,-0.7,1.8,2471.286,13.29,0.028,198.4
2023-01-25T11:13:03,42.805,6.029,-0.015,-0.005,0.007,105.0,104.0,103.0,13.4,1505.2,329.1,-0.8,1.8,2471.308,13.29,0.015,251.6
2023-01-25T11:16:03,42.805,6.029,-0.001,-0.021,0.0,106.0,105.0,104.0,13.4,1505.2,330.8,-0.7,1.8,2471.295,13.29,0.021,182.7
2023-01-25T11:19:03,42.805,6.029,-0.015,-0.018,0.007,106.0,104.0,104.0,13.4,1505.2,327.5,-0.8,1.8,2471.3,13.29,0.023,219.8
2023-01-25T11:22:03,42.805,6.029,0.012,-0.021,0.011,106.0,104.0,103.0,13.4,1505.2,325.4,-0.8,1.8,2471.278,13.29,0.024,150.3
2023-01-25T11:25:03,42.805,6.029,0.007,-0.033,-0.002,107.0,104.0,102.0,13.3,1505.2,325.0,-0.8,1.8,2471.274,13.29,0.033,168.0
2023-01-25T11:28:03,42.805,6.029,-0.002,-0.034,-0.019,106.0,104.0,103.0,13.4,1505.2,338.9,-0.8,1.8,2471.228,13.29,0.034,183.4
2023-01-25T11:31:03,42.805,6.029,0.004,-0.026,-0.007,106.0,105.0,104.0,13.4,1505.2,324.6,-0.8,1.8,2471.294,13.29,0.026,171.3
2023-01-25T11:34:03,42.805,6.029,-0.004,-0.004,0.02,106.0,104.0,105.0,13.3,1505.2,332.7,-0.8,1.8,2471.277,13.29,0.005,225.0
2023-01-25T11:37:03,42.805,6.029,-0.002,-0.027,0.01,106.0,105.0,104.0,13.4,1505.2,327.7,-0.8,1.8,2471.236,13.29,0.027,184.2
2023-01-25T11:40:03,42.805,6.029,0.0,-0.022,0.026,108.0,104.0,103.0,13.4,1505.2,331.9,-0.8,1.8,2471.221,13.29,0.022,180.0
2023-01-25T11:43:03,42.805,6.029,-0.006,-0.019,0.022,105.0,105.0,103.0,13.4,1505.2,323.4,-0.7,1.8,2471.275,13.29,0.019,197.5
2023-01-25T11:46:03,42.805,6.029,0.015,-0.014,0.009,105.0,105.0,103.0,13.4,1505.2,322.8,-0.7,1.8,2471.256,13.29,0.02,133.0
2023-01-25T11:49:03,42.805,6.029,-0.009,-0.021,0.008,105.0,105.0,104.0,13.4,1505.2,320.7,-0.8,1.8,2471.251,13.29,0.022,203.2
2023-01-25T11:52:03,42.805,6.029,0.006,-0.032,0.0,105.0,105.0,103.0,13.3,1505.2,321.2,-0.7,1.8,2471.263,13.29,0.032,169.4